GW6791 Weather Reports


time (UTC)temp
C
wind
direction
speed
KPH
gust
KPH
rain 1hr
cm
rain 24hr
cm
rain mn
cm
humidity
%
barometer
mb
20260503201514 17 226 6.4 14.5 0.00 0.00 0.00 33 1053.0
20260503201011 17 253 14.5 17.7 0.00 0.00 0.00 33 1053.2
20260503200507 17 220 4.8 17.7 0.00 0.00 0.00 34 1053.2
20260503200003 17 262 16.1 24.1 0.00 0.00 0.00 34 1053.1
20260503195500 17 214 3.2 6.4 0.00 0.00 0.00 35 1053.3
20260503194957 17 198 9.7 22.5 0.00 0.00 0.00 31 1053.4
20260503194454 17 178 4.8 6.4 0.00 0.00 0.00 35 1053.5
20260503193949 17 173 6.4 9.7 0.00 0.00 0.00 35 1053.6
20260503193446 17 288 9.7 16.1 0.00 0.00 0.00 35 1053.5
20260503192941 17 211 11.3 12.9 0.00 0.00 0.00 36 1053.9
20260503192438 17 201 12.9 16.1 0.00 0.00 0.00 34 1053.8
20260503191933 17 218 3.2 14.5 0.00 0.00 0.00 32 1053.7
20260503191431 17 213 11.3 16.1 0.00 0.00 0.00 34 1054.0
20260503190927 18 105 3.2 4.8 0.00 0.00 0.00 35 1053.8
20260503190425 18 200 1.6 3.2 0.00 0.00 0.00 33 1054.2
20260503185922 17 136 0.0 3.2 0.00 0.00 0.00 36 1054.3
20260503185418 17 217 3.2 9.7 0.00 0.00 0.00 38 1054.1
20260503184917 16 194 6.4 9.7 0.00 0.00 0.00 35 1054.7
20260503184414 16 237 11.3 14.5 0.00 0.00 0.00 37 1054.3
20260503183910 16 179 9.7 14.5 0.00 0.00 0.00 35 1054.6
20260503183407 16 228 6.4 12.9 0.00 0.00 0.00 38 1054.6
20260503182904 17 192 6.4 12.9 0.00 0.00 0.00 36 1054.7
20260503182403 16 99 3.2 6.4 0.00 0.00 0.00 36 1054.5
20260503181900 16 232 9.7 11.3 0.00 0.00 0.00 35 1054.7
20260503181356 16 106 4.8 12.9 0.00 0.00 0.00 36 1054.7
20260503180853 16 103 1.6 9.7 0.00 0.00 0.00 38 1054.9
20260503180351 15 221 3.2 9.7 0.00 0.00 0.00 39 1055.0
20260503175847 15 214 1.6 6.4 0.00 0.00 0.00 30 1055.1
20260503175345 15 212 3.2 9.7 0.00 0.00 0.00 35 1055.1
20260503174840 15 278 9.7 12.9 0.00 0.00 0.00 33 1055.2
20260503174339 15 224 12.9 14.5 0.00 0.00 0.00 34 1055.3
20260503173834 16 179 8.0 11.3 0.00 0.00 0.00 35 1055.3
20260503173330 16 115 4.8 6.4 0.00 0.00 0.00 36 1055.5
20260503172827 16 255 6.4 11.3 0.00 0.00 0.00 35 1055.5
20260503172325 15 203 4.8 4.8 0.00 0.00 0.00 32 1055.7
20260503171821 16 16 1.6 4.8 0.00 0.00 0.00 31 1055.9
20260503171318 16 170 3.2 3.2 0.00 0.00 0.00 41 1055.8
20260503170815 15 172 6.4 9.7 0.00 0.00 0.00 39 1056.2
20260503170311 15 244 4.8 12.9 0.00 0.00 0.00 35 1056.1
20260503150704 13 215 6.4 9.7 0.00 0.00 0.00 41 1057.0
20260503150200 13 239 1.6 6.4 0.00 0.00 0.00 40 1056.9
20260503140124 11 226 4.8 6.4 0.00 0.00 0.00 51 1057.0
20260503131054 10 201 1.6 3.2 0.00 0.00 0.00 60 1056.9
20260503130550 10 209 3.2 4.8 0.00 0.00 0.00 59 1056.9
20260503110441 0 76 1.6 1.6 0.00 0.00 0.00 94 1056.1
20260503090332 0 74 1.6 1.6 0.00 0.00 0.00 92 1055.4
20260503081300 1 74 1.6 1.6 0.00 0.00 0.00 88 1055.3
20260503080756 1 74 0.0 1.6 0.00 0.00 0.00 87 1055.2
20260503080253 1 74 0.0 1.6 0.00 0.00 0.00 88 1055.1
20260503072730 2 9 0.0 1.6 0.00 0.00 0.00 81 1055.0
20260503072226 2 8 0.0 0.0 0.00 0.00 0.00 80 1055.1
20260503071723 2 7 0.0 0.0 0.00 0.00 0.00 77 1055.0
20260503071220 2 7 0.0 0.0 0.00 0.00 0.00 78 1055.1
20260503070716 1 7 0.0 0.0 0.00 0.00 0.00 79 1055.0
20260503070215 2 7 0.0 0.0 0.00 0.00 0.00 79 1055.1
20260503060139 5 8 0.0 0.0 0.00 0.00 0.00 64 1055.1
20260503054626 5 8 0.0 0.0 0.00 0.00 0.00 64 1055.1
20260503054123 5 8 0.0 1.6 0.00 0.00 0.00 64 1055.1
20260503053621 5 7 0.0 1.6 0.00 0.00 0.00 65 1055.2
20260503053120 5 7 0.0 1.6 0.00 0.00 0.00 64 1055.4
20260503052615 5 6 0.0 1.6 0.00 0.00 0.00 64 1055.3
20260503052112 5 6 0.0 1.6 0.00 0.00 0.00 64 1055.1
20260503051607 5 5 0.0 0.0 0.00 0.00 0.00 64 1055.1
20260503051106 5 5 0.0 1.6 0.00 0.00 0.00 64 1055.0
20260503050601 5 6 0.0 1.6 0.00 0.00 0.00 63 1055.2
20260503050058 5 5 0.0 1.6 0.00 0.00 0.00 63 1055.1
20260503045555 5 6 1.6 1.6 0.00 0.00 0.00 62 1055.1
20260503045053 5 357 1.6 3.2 0.00 0.00 0.00 62 1055.1
20260503044549 6 357 3.2 3.2 0.00 0.00 0.00 62 1055.1
20260503044047 6 2 3.2 3.2 0.00 0.00 0.00 61 1055.1
20260503043543 6 341 3.2 4.8 0.00 0.00 0.00 62 1055.1
20260503043040 6 335 1.6 3.2 0.00 0.00 0.00 62 1055.2
20260503042537 6 344 1.6 4.8 0.00 0.00 0.00 63 1055.2
20260503042033 6 331 3.2 3.2 0.00 0.00 0.00 63 1055.1
20260503041530 6 332 1.6 3.2 0.00 0.00 0.00 64 1054.9
20260503041028 6 331 3.2 3.2 0.00 0.00 0.00 63 1054.9
20260503040525 6 335 3.2 3.2 0.00 0.00 0.00 64 1055.2
20260503040022 6 328 3.2 4.8 0.00 0.00 0.00 64 1055.0
20260503035519 6 321 1.6 3.2 0.00 0.00 0.00 65 1054.9
20260503035016 6 319 3.2 3.2 0.00 0.00 0.00 65 1055.1
20260503034513 6 322 1.6 3.2 0.00 0.00 0.00 65 1054.9
20260503034010 6 323 1.6 3.2 0.00 0.00 0.00 65 1055.0
20260503033508 6 320 1.6 3.2 0.00 0.00 0.00 65 1054.9
20260503033006 6 317 3.2 4.8 0.00 0.00 0.00 65 1054.7
20260503032504 6 325 1.6 3.2 0.00 0.00 0.00 65 1054.9
20260503032001 6 319 1.6 3.2 0.00 0.00 0.00 65 1054.8
20260503031459 7 319 1.6 3.2 0.00 0.00 0.00 65 1054.7
20260503030955 7 318 1.6 1.6 0.00 0.00 0.00 65 1054.7
20260503030451 7 314 3.2 3.2 0.00 0.00 0.00 65 1054.9
20260503025949 7 312 1.6 3.2 0.00 0.00 0.00 65 1054.8
20260503025445 7 317 3.2 4.8 0.00 0.00 0.00 66 1054.8
20260503024943 6 316 1.6 4.8 0.00 0.00 0.00 67 1054.8
20260503024439 6 296 1.6 3.2 0.00 0.00 0.00 67 1054.6
20260503023937 7 289 0.0 1.6 0.00 0.00 0.00 68 1054.6
20260503023434 7 282 1.6 1.6 0.00 0.00 0.00 69 1054.3
20260503022931 7 273 1.6 1.6 0.00 0.00 0.00 70 1054.6
20260503022426 7 273 1.6 3.2 0.00 0.00 0.00 69 1054.3
20260503021922 7 269 1.6 1.6 0.00 0.00 0.00 67 1054.3
20260503021418 7 259 1.6 1.6 0.00 0.00 0.00 63 1054.2
20260503020916 7 259 0.0 1.6 0.00 0.00 0.00 62 1053.9
20260503020413 7 259 0.0 1.6 0.00 0.00 0.00 62 1053.9
20260503015909 7 259 0.0 0.0 0.00 0.00 0.00 62 1053.9
20260503015407 7 259 0.0 0.0 0.00 0.00 0.00 61 1053.8
20260503014902 7 259 0.0 0.0 0.00 0.00 0.00 61 1053.9
20260503014400 7 259 0.0 0.0 0.00 0.00 0.00 62 1053.8
20260503013858 7 259 0.0 0.0 0.00 0.00 0.00 63 1053.7
20260503013354 7 259 0.0 0.0 0.00 0.00 0.00 64 1053.8
20260503012851 8 259 0.0 0.0 0.00 0.00 0.00 64 1053.8
20260503012349 8 259 0.0 0.0 0.00 0.00 0.00 63 1053.3
20260503011846 8 259 0.0 0.0 0.00 0.00 0.00 61 1053.5
20260503011342 8 259 0.0 1.6 0.00 0.00 0.00 60 1053.5
20260503010839 8 259 0.0 1.6 0.00 0.00 0.00 59 1053.5
20260503010336 9 259 0.0 1.6 0.00 0.00 0.00 59 1053.4
20260503005833 9 259 0.0 0.0 0.00 0.00 0.00 58 1053.4
20260503005331 9 259 0.0 1.6 0.00 0.00 0.00 57 1053.6
20260503004826 9 259 1.6 1.6 0.00 0.00 0.00 57 1053.3
20260503004324 9 271 1.6 3.2 0.00 0.00 0.00 57 1053.3
20260503003821 9 265 1.6 3.2 0.00 0.00 0.00 57 1053.2
20260503003318 9 291 1.6 1.6 0.00 0.00 0.00 57 1053.2
20260503002815 10 298 1.6 3.2 0.00 0.00 0.00 56 1053.3
20260503002312 10 321 3.2 4.8 0.00 0.00 0.00 55 1053.0
20260503001809 9 303 4.8 9.7 0.00 0.00 0.00 55 1052.9
20260503001305 10 298 4.8 4.8 0.00 0.00 0.00 55 1052.9
20260503000803 10 285 1.6 3.2 0.00 0.00 0.00 54 1052.8
20260503000300 10 305 3.2 4.8 0.00 0.00 0.00 53 1052.8
20260502235757 10 287 4.8 6.4 0.00 0.00 0.00 52 1052.7
20260502235254 11 276 4.8 9.7 0.00 0.00 0.00 51 1052.7
20260502234750 11 295 6.4 9.7 0.00 0.00 0.00 50 1052.6
20260502234248 10 291 6.4 11.3 0.00 0.00 0.00 49 1052.9
20260502233744 11 299 6.4 11.3 0.00 0.00 0.00 51 1052.6
20260502233241 11 320 8.0 12.9 0.00 0.00 0.00 50 1052.6
20260502232736 11 306 4.8 12.9 0.00 0.00 0.00 50 1052.6
20260502232234 12 322 8.0 9.7 0.00 0.00 0.00 48 1052.6
20260502231730 12 294 11.3 16.1 0.00 0.00 0.00 45 1052.4
20260502231228 12 322 4.8 4.8 0.00 0.00 0.00 50 1052.5
20260502230727 12 296 6.4 9.7 0.00 0.00 0.00 50 1052.6
20260502230225 11 310 8.0 11.3 0.00 0.00 0.00 49 1052.5
20260502225720 11 320 3.2 4.8 0.00 0.00 0.00 53 1052.6
20260502225218 12 321 11.3 12.9 0.00 0.00 0.00 50 1052.6
20260502224714 12 322 9.7 11.3 0.00 0.00 0.00 48 1052.6
20260502224211 12 333 6.4 9.7 0.00 0.00 0.00 50 1052.7
20260502223708 11 330 6.4 11.3 0.00 0.00 0.00 52 1052.4
20260502223206 11 327 3.2 9.7 0.00 0.00 0.00 51 1052.7
20260502222704 11 330 6.4 9.7 0.00 0.00 0.00 52 1052.9
20260502222200 11 288 4.8 6.4 0.00 0.00 0.00 52 1052.6
20260502221655 11 311 3.2 6.4 0.00 0.00 0.00 49 1052.8
20260502221153 11 312 8.0 11.3 0.00 0.00 0.00 52 1052.8
20260502220649 11 273 9.7 12.9 0.00 0.00 0.00 51 1052.6
20260502220145 12 300 4.8 4.8 0.00 0.00 0.00 52 1052.5
20260502215643 12 329 6.4 9.7 0.00 0.00 0.00 52 1052.5
20260502215139 11 248 8.0 14.5 0.00 0.00 0.00 51 1052.6
20260502214637 11 274 8.0 12.9 0.00 0.00 0.00 51 1052.6
20260502214134 11 263 6.4 6.4 0.00 0.00 0.00 52 1052.6
20260502213631 11 286 3.2 9.7 0.00 0.00 0.00 52 1052.5
20260502213128 12 242 4.8 11.3 0.00 0.00 0.00 51 1052.5
20260502212627 11 278 4.8 9.7 0.00 0.00 0.00 51 1052.6
20260502212125 11 287 8.0 11.3 0.00 0.00 0.00 51 1052.6
20260502211620 11 284 4.8 12.9 0.00 0.00 0.00 51 1052.7
20260502211117 11 283 4.8 11.3 0.00 0.00 0.00 53 1052.4
20260502210615 11 308 6.4 9.7 0.00 0.00 0.00 54 1052.8
20260502210112 11 313 6.4 9.7 0.00 0.00 0.00 54 1052.6
20260502205608 11 309 8.0 11.3 0.00 0.00 0.00 53 1052.6
20260502205105 11 237 6.4 9.7 0.00 0.00 0.00 53 1052.4
20260502204602 11 247 4.8 6.4 0.00 0.00 0.00 53 1052.8
20260502204100 11 274 4.8 6.4 0.00 0.00 0.00 53 1052.6
20260502203556 11 302 9.7 12.9 0.00 0.00 0.00 53 1052.7
20260502203054 12 290 6.4 9.7 0.00 0.00 0.00 53 1052.8
20260502202549 12 336 4.8 6.4 0.00 0.00 0.00 55 1052.7
20260502202048 12 309 6.4 11.3 0.00 0.00 0.00 51 1052.8